sat.trackr.live / text

‹ back to catalog

CZ-3B R/B

NORAD 69571 · 2026-136B

ROCKET_BODY UNKNOWN UNKNOWN

§ Identity

Operator
Country
PRC
Launch date
2026-06-16
Launch site
XICLF
Launch vehicle
Mass (kg)
RCS (m²)

External: N2YO · Heavens-Above · Gunter

§ Orbital elements

Epoch: 2026-07-13T05:10:02.915328Z

Period
604.87 min
Inclination
63.4303°
Eccentricity
0.7256733
Mean motion
2.38066580 rev/d
Perigee alt
121.2 km
Apogee alt
34,506.6 km
Semi-major
23,692.1 km
B*
6.0349e-4
RAAN
350.8798°
Arg perigee
171.5015°
Mean anomaly
216.3709°
Rev number
63

§ Raw data

CZ-3B R/B1 69571U 26136B   26194.21531152  .00411847  89933-7  60349-3 0  99972 69571  63.4303 350.8798 7256733 171.5015 216.3709  2.38066580   637

JSON: /api/v1/satellites/69571 · /tle

For live sub-satellite position, see the globe view (requires WebGL).

§ Visibility from observer

Set your observer location to see the next 7 days of passes ≥ 10°. The values pass through the URL so the page stays shareable.

No JS? Fill the form by hand. The geolocation button needs JavaScript.